User: anonymous   Login
Location: ???????
(55.4362°N, 38.1183°E)
Time: 14:11:10
(UTC+00:00)
Language:

HuskySat-1 - Orbit

View from above orbital plane
View from above orbital plane
View from above satellite
View from above satellite

Ground track
Ground track

The orbit data is extracted from the following two-line orbital elements,

1 45117U 19071G   21332.01198220  .00006760  00000-0  18413-3 0  9999
2 45117  51.6409 320.9616 0009215 158.2519 201.8858 15.38665318102348
Epoch (UTC): 28 November 2021 00:17:15
Eccentricity: 0.0009215
inclination: 51.6409°
perigee height: 444 km
apogee height: 456 km
right ascension of ascending node: 320.9616°
argument of perigee: 158.2519°
revolutions per day: 15.38665318
mean anomaly at epoch: 201.8858°
orbit number at epoch: 10234

The dashed part of the orbit path shows where the satellite is in the earth's shadow,  

DLR